METEOSAT 10 (MSG 3)

导读 | 星芒AI

METEOSAT 10(也称为MSG-3)是欧洲气象卫星组织(EUMETSAT)运营的第三代静止气象卫星,于2012年7月发射。它位于东经9.5度的地球静止轨道,主要任务是提供高分辨率的可见光和红外图像,用于天气监测、气候研究和灾害预警。该卫星搭载SEVIRI传感器,可每15分钟对整个欧洲及周边地区进行一次扫描,支持气象预报和环境监测。METEOSAT 10在2019年退役,由METEOSAT 12接替其任务。

基本信息
目录编号:
38552
目录名称:
METEOSAT 10 (MSG 3)
国际标识:
2012-035B
轨道中心:
EARTH
卫星名称:
METEOSAT 10 (MSG 3)
卫星全名:
--
卫星状态:
在轨 (已飞行4911 天)
发射日期:
2012-07-05 UTC
国别 :
(EUME)
星等 :
--
轨道信息
数据来源 国际轨道数据
星历时间: 2025-12-15T05:58:50+0800
20小时前
查看轨道信息
半长轴: 42163.663km
偏心率: 0.0000731
轨道倾角: 4.234°
近地点辐角 261.659°
升交点赤经 61.719°
平近点角 90.360°
近地点: 35782.445km
远地点: 35788.611km
周期: 1436.042分钟
每日圈数: 1.002756
详细信息
使用方式:
暂无
2D轨道图
3D轨道图
轨道高度分析图
轨道倾角分析图
轨道综合分析图
查看轨道综合分析图